Gilmer, TX

4:22 AM CDT on September 21, 2017 (GMT -0500)
Gilmer

Weather History for KJXI - September, 2013

Change the Weather History Date:

Friday, September 13, 2013

  Actual Average (KGGG) Record (KGGG)
Temperature  
Mean Temperature 84 °F -  
Max Temperature 95 °F 86 °F 107 °F (2011)
Min Temperature 73 °F 65 °F 46 °F (1919)
Cooling Degree Days 19    
Growing Degree Days 34 (Base 50)    
Moisture  
Dew Point 68 °F    
Average Humidity 61    
Maximum Humidity 88    
Minimum Humidity 36    
Precipitation  
Precipitation 0.00 in - - ()
Sea Level Pressure  
Sea Level Pressure 29.94 in    
Wind  
Wind Speed - (North)    
Max Wind Speed -    
Max Gust Speed -    
Visibility 10 miles    
Events      
Averages and records for this station are not official NWS values.
T = Trace of Precipitation, MM = Missing Value Source: NWS Daily Summary

Daily Weather History Graph

Daily Weather History Graph

Search for Another Location

Airport or City:

Trip Planner

Search our weather history database for the weather conditions in past years. The results will help you decide how hot, cold, wet, or windy it might be!

Date:

Astronomy

Sep. 13, 2013 Rise Set
Actual Time 7:02 AM CDT 7:28 PM CDT
Civil Twilight 6:37 AM CDT 7:52 PM CDT
Nautical Twilight 6:08 AM CDT 8:21 PM CDT
Astronomical Twilight 5:39 AM CDT 8:51 PM CDT
Moon 3:05 PM CDT (9/13) 12:46 AM CDT (9/13)
Length of Visible Light 13h 15m
Length of Day
12h 25m
First Quarter, 61% of the Moon is Illuminated
Sep 13
First Quarter
Sep 19
Full
Sep 26
Last Quarter
Oct 4
New
Oct 11
First Quarter

Hourly Weather History & Observations

Time (CDT) Temp. Heat Index Dew Point Humidity Pressure Visibility Wind Dir Wind Speed Gust Speed Precip Events Conditions
12:15 AM 82.4 °F 86.3 °F 69.8 °F 66% 29.97 in 10.0 mi North - - N/A   Clear
12:35 AM 80.6 °F 83.9 °F 69.8 °F 70% 29.97 in 6.0 mi North - - N/A   Haze
12:55 AM 80.6 °F 83.9 °F 69.8 °F 70% 29.97 in 10.0 mi North - - N/A   Clear
1:15 AM 78.8 °F - 69.8 °F 74% 29.97 in 10.0 mi North - - N/A   Clear
1:35 AM 78.8 °F - 69.8 °F 74% 29.97 in 10.0 mi North - - N/A   Clear
1:55 AM 78.8 °F - 69.8 °F 74% 29.97 in 8.0 mi North - - N/A   Clear
2:15 AM 78.8 °F - 69.8 °F 74% 29.97 in 10.0 mi North - - N/A   Clear
2:35 AM 78.8 °F - 69.8 °F 74% 29.97 in 9.0 mi North - - N/A   Clear
2:55 AM 78.8 °F - 69.8 °F 74% 29.97 in 10.0 mi North - - N/A   Clear
3:15 AM 77.0 °F - 69.8 °F 78% 29.96 in 9.0 mi North - - N/A   Clear
3:35 AM 77.0 °F - 69.8 °F 78% 29.96 in 10.0 mi North - - N/A   Clear
3:55 AM 77.0 °F - 69.8 °F 78% 29.96 in 7.0 mi North - - N/A   Clear
4:15 AM 77.0 °F - 69.8 °F 78% 29.96 in 10.0 mi North - - N/A   Clear
4:35 AM 75.2 °F - 69.8 °F 83% 29.96 in 10.0 mi North - - N/A   Clear
4:55 AM 75.2 °F - 69.8 °F 83% 29.96 in 10.0 mi North - - N/A   Clear
5:15 AM 75.2 °F - 69.8 °F 83% 29.96 in 10.0 mi North - - N/A   Clear
5:35 AM 75.2 °F - 69.8 °F 83% 29.96 in 10.0 mi North - - N/A   Clear
5:55 AM 75.2 °F - 69.8 °F 83% 29.96 in 10.0 mi North - - N/A   Clear
6:15 AM 75.2 °F - 69.8 °F 83% 29.97 in 9.0 mi North - - N/A   Clear
6:35 AM 73.4 °F - 69.8 °F 88% 29.97 in 7.0 mi North - - N/A   Clear
6:55 AM 73.4 °F - 69.8 °F 88% 29.97 in 8.0 mi North - - N/A   Clear
7:15 AM 73.4 °F - 69.8 °F 88% 29.97 in 3.0 mi North - - N/A   Haze
7:35 AM 75.2 °F - 69.8 °F 83% 29.98 in 5.0 mi North - - N/A   Haze
7:55 AM 75.2 °F - 69.8 °F 83% 29.99 in 8.0 mi North - - N/A   Clear
8:15 AM 78.8 °F - 69.8 °F 74% 29.99 in 8.0 mi North - - N/A   Clear
8:35 AM 78.8 °F - 69.8 °F 74% 29.99 in 9.0 mi North - - N/A   Clear
8:55 AM 80.6 °F 83.9 °F 69.8 °F 70% 29.99 in 10.0 mi North - - N/A   Clear
9:15 AM 80.6 °F 83.9 °F 69.8 °F 70% 29.99 in 9.0 mi North - - N/A   Clear
9:35 AM 82.4 °F 86.3 °F 69.8 °F 66% 29.99 in 10.0 mi North - - N/A   Clear
9:55 AM 82.4 °F 87.2 °F 71.6 °F 70% 29.99 in 10.0 mi North - - N/A   Clear
10:15 AM 84.2 °F 89.6 °F 71.6 °F 66% 29.99 in 10.0 mi North - - N/A   Clear
10:35 AM 86.0 °F 91.8 °F 71.6 °F 62% 29.99 in 10.0 mi North - - N/A   Clear
10:55 AM 87.8 °F 93.8 °F 71.6 °F 58% 29.99 in 10.0 mi North - - N/A   Clear
11:15 AM 89.6 °F 96.2 °F 71.6 °F 55% 29.99 in 10.0 mi North - - N/A   Clear
11:35 AM 89.6 °F 96.2 °F 71.6 °F 55% 29.98 in 10.0 mi North - - N/A   Clear
11:55 AM 89.6 °F 94.7 °F 69.8 °F 52% 29.98 in 10.0 mi North - - N/A   Clear
12:15 PM 91.4 °F 96.8 °F 69.8 °F 49% 29.97 in 10.0 mi North - - N/A   Clear
12:35 PM 91.4 °F 96.8 °F 69.8 °F 49% 29.97 in 10.0 mi North - - N/A   Clear
12:55 PM 91.4 °F 96.8 °F 69.8 °F 49% 29.96 in 10.0 mi North - - N/A   Partly Cloudy
1:15 PM 91.4 °F 95.4 °F 68.0 °F 46% 29.94 in 10.0 mi North - - N/A   Partly Cloudy
1:35 PM 91.4 °F 95.4 °F 68.0 °F 46% 29.94 in 10.0 mi North - - N/A   Clear
1:55 PM 91.4 °F 96.8 °F 69.8 °F 49% 29.93 in 10.0 mi North - - N/A   Clear
2:15 PM 91.4 °F 95.4 °F 68.0 °F 46% 29.92 in 10.0 mi North - - N/A   Clear
2:35 PM 93.2 °F 96.2 °F 66.2 °F 41% 29.90 in 10.0 mi North - - N/A   Partly Cloudy
2:55 PM 95.0 °F 98.5 °F 66.2 °F 39% 29.89 in 10.0 mi North - - N/A   Partly Cloudy
3:15 PM 93.2 °F 96.2 °F 66.2 °F 41% 29.89 in 10.0 mi North - - N/A   Clear
3:35 PM 93.2 °F 96.2 °F 66.2 °F 41% 29.88 in 10.0 mi North - - N/A   Clear
3:55 PM 95.0 °F 98.5 °F 66.2 °F 39% 29.87 in 10.0 mi North - - N/A   Clear
4:15 PM 95.0 °F 97.0 °F 64.4 °F 36% 29.86 in 10.0 mi North - - N/A   Clear
4:35 PM - - - N/A% - - North - - N/A   Unknown
4:55 PM - - - N/A% - - North - - N/A   Unknown
5:15 PM - - - N/A% - - North - - N/A   Unknown
5:35 PM - - - N/A% - - North - - N/A   Unknown
5:55 PM 93.2 °F 94.9 °F 64.4 °F 38% 29.86 in - North - - N/A   Unknown
6:15 PM 93.2 °F 94.9 °F 64.4 °F 38% 29.86 in 10.0 mi North - - N/A   Clear
6:35 PM 91.4 °F 94.0 °F 66.2 °F 43% 29.87 in 10.0 mi North - - N/A   Clear
6:55 PM 91.4 °F 94.0 °F 66.2 °F 43% 29.87 in 10.0 mi North - - N/A   Clear
7:15 PM 91.4 °F 94.0 °F 66.2 °F 43% 29.87 in 10.0 mi North - - N/A   Clear
7:35 PM 89.6 °F 92.2 °F 66.2 °F 46% 29.88 in 10.0 mi North - - N/A   Clear
7:55 PM 89.6 °F 92.2 °F 66.2 °F 46% 29.88 in 10.0 mi North - - N/A   Clear
8:15 PM 87.8 °F 90.4 °F 66.2 °F 49% 29.89 in 10.0 mi North - - N/A   Clear
8:35 PM 87.8 °F 90.4 °F 66.2 °F 49% 29.90 in 10.0 mi North - - N/A   Clear
8:55 PM 87.8 °F 90.4 °F 66.2 °F 49% 29.91 in 10.0 mi North - - N/A   Clear
9:15 PM 86.0 °F 88.2 °F 66.2 °F 51% 29.92 in 10.0 mi North - - N/A   Clear
9:35 PM 84.2 °F 86.6 °F 66.2 °F 55% 29.93 in 10.0 mi North - - N/A   Clear
9:55 PM 84.2 °F 86.6 °F 66.2 °F 55% 29.93 in 10.0 mi North - - N/A   Clear
10:15 PM 84.2 °F 86.6 °F 66.2 °F 55% 29.94 in 10.0 mi North - - N/A   Clear
10:35 PM 84.2 °F 86.6 °F 66.2 °F 55% 29.94 in 10.0 mi North - - N/A   Clear
10:55 PM 82.4 °F 84.6 °F 66.2 °F 58% 29.94 in 10.0 mi North - - N/A   Clear
11:15 PM 82.4 °F 83.9 °F 64.4 °F 54% 29.94 in 10.0 mi North - - N/A   Clear
11:35 PM 82.4 °F 83.9 °F 64.4 °F 54% 29.95 in 10.0 mi North - - N/A   Clear
11:55 PM 82.4 °F 83.9 °F 64.4 °F 54% 29.95 in 10.0 mi North - - N/A   Clear